Tracking 35275 objects as of 9-Sep-2026
HD Live streaming from Space Station
objects crossing your sky now

STARLETTE


10-day predictions
STARLETTE is classified as:


NORAD ID: 7646
Int'l Code: 1975-010A
Launch date: February 6, 1975
Source: France (FR)
Launch site: FRENCH GUIANA (FRGUI)
Your satellite tracking list
Your tracking list is empty




NASA's NSSDC Master Catalog

Two Line Element Set (TLE):
1  7646U 75010A   26252.16714617 -.00000136  00000-0  51104-5 0  9993
2  7646  49.8234 133.1127 0205668 340.4834  18.8269 13.82351544606154
Source of the keplerian elements: AFSPC